sat.trackr.live / text

‹ back to catalog

COSMOS 2618

NORAD 68829 · 2026-090D

PAYLOAD ACTIVE UNKNOWN

§ Identity

Operator
Country
CIS
Launch date
2026-04-23
Launch site
PLMSC
Launch vehicle
Mass (kg)
RCS (m²)

External: N2YO · Heavens-Above · Gunter

§ Orbital elements

Epoch: 2026-05-25T04:14:24.928224Z

Period
91.02 min
Inclination
96.6462°
Eccentricity
0.0016983
Mean motion
15.82125579 rev/d
Perigee alt
313.0 km
Apogee alt
335.8 km
Semi-major
6,702.6 km
B*
1.9483e-4
RAAN
63.6964°
Arg perigee
124.1205°
Mean anomaly
236.1679°
Rev number
503

§ Raw data

COSMOS 26181 68829U 26090D   26145.17667741  .00040096  00000+0  19483-3 0  99932 68829  96.6462  63.6964 0016983 124.1205 236.1679 15.82125579  5031

JSON: /api/v1/satellites/68829 · /tle

For live sub-satellite position, see the globe view (requires WebGL).

§ Visibility from observer

Set your observer location to see the next 7 days of passes ≥ 10°. The values pass through the URL so the page stays shareable.

No JS? Fill the form by hand. The geolocation button needs JavaScript.